When you browse on this site, cookies collect data to enhance your experience and personalize the content and advertising you see.
Visit our Privacy Policy to learn more. By continuing to use the site, you agree to this use of cookies and data.
  • In United Kingdom
  • List of Countries
  • For 7 days
  • Water Temperature
  • Weather Map
  • Weather Widgets
  • user-avatar
    Login

    Hourly Weather Adelaide

    Today, 20 February, Thursday

    Time Temperature Precipitation Wind Pressure Humidity
    00:00 +13°C° 0 mm 4 mps 759 mmHg 79%
    01:00 +13°C° 0 mm 4 mps 759 mmHg 79%
    02:00 +13°C° 0 mm 4 mps 758 mmHg 79%
    03:00 +13°C° 0 mm 4 mps 758 mmHg 78%
    04:00 +13°C° 0 mm 3 mps 758 mmHg 77%
    05:00 +14°C° 0 mm 3 mps 759 mmHg 77%
    06:00 +14°C° 0 mm 3 mps 759 mmHg 76%
    07:00 +16°C° 0 mm 3 mps 760 mmHg 70%
    08:00 +17°C° 0 mm 3 mps 760 mmHg 64%
    09:00 +19°C° 0 mm 2 mps 760 mmHg 59%
    10:00 +20°C° 0 mm 2 mps 760 mmHg 56%
    11:00 +21°C° 0 mm 3 mps 759 mmHg 53%
    12:00 +22°C° 0 mm 3 mps 759 mmHg 49%
    13:00 +22°C° 0 mm 4 mps 759 mmHg 50%
    14:00 +22°C° 0 mm 4 mps 758 mmHg 50%
    15:00 +22°C° 0 mm 4 mps 758 mmHg 52%
    16:00 +21°C° 0 mm 4 mps 759 mmHg 55%
    17:00 +20°C° 0 mm 5 mps 759 mmHg 59%
    18:00 +19°C° 0 mm 6 mps 759 mmHg 62%
    19:00 +17°C° 0 mm 6 mps 759 mmHg 67%
    20:00 +16°C° 0 mm 6 mps 760 mmHg 71%
    21:00 +15°C° 0 mm 5 mps 760 mmHg 74%
    22:00 +15°C° 0 mm 5 mps 760 mmHg 76%
    23:00 +15°C° 0 mm 5 mps 760 mmHg 77%

    Tomorrow, 21 February, Friday

    Time Temperature Precipitation Wind Pressure Humidity
    00:00 +14°C° 0 mm 4 mps 760 mmHg 78%
    01:00 +14°C° 0 mm 4 mps 760 mmHg 77%
    02:00 +14°C° 0 mm 4 mps 760 mmHg 76%
    03:00 +15°C° 0 mm 4 mps 760 mmHg 75%
    04:00 +14°C° 0 mm 4 mps 760 mmHg 75%
    05:00 +14°C° 0 mm 3 mps 761 mmHg 75%
    06:00 +14°C° 0 mm 3 mps 761 mmHg 75%
    07:00 +16°C° 0 mm 3 mps 761 mmHg 69%
    08:00 +18°C° 0 mm 3 mps 762 mmHg 62%
    09:00 +19°C° 0 mm 3 mps 762 mmHg 55%
    10:00 +20°C° 0 mm 4 mps 761 mmHg 51%
    11:00 +22°C° 0 mm 4 mps 761 mmHg 47%
    12:00 +23°C° 0 mm 4 mps 761 mmHg 43%
    13:00 +23°C° 0 mm 5 mps 761 mmHg 44%
    14:00 +25°C° 0 mm 5 mps 760 mmHg 45%
    15:00 +24°C° 0 mm 6 mps 760 mmHg 46%
    22:00 +15°C° 0 mm 5 mps 762 mmHg 77%
    23:00 +16°C° 0 mm 5 mps 762 mmHg 75%

    Day after tomorrow, 22 February, Saturday

    Time Temperature Precipitation Wind Pressure Humidity
    00:00 +16°C° 0 mm 5 mps 762 mmHg 74%
    01:00 +15°C° 0 mm 4 mps 762 mmHg 72%
    02:00 +15°C° 0 mm 4 mps 761 mmHg 70%
    03:00 +16°C° 0 mm 3 mps 761 mmHg 68%
    04:00 +16°C° 0 mm 3 mps 761 mmHg 67%
    05:00 +16°C° 0 mm 2 mps 762 mmHg 67%
    06:00 +15°C° 0 mm 2 mps 762 mmHg 66%
    07:00 +18°C° 0 mm 2 mps 762 mmHg 57%
    08:00 +20°C° 0 mm 2 mps 762 mmHg 49%
    09:00 +23°C° 0 mm 2 mps 762 mmHg 40%
    10:00 +25°C° 0 mm 2 mps 762 mmHg 39%
    11:00 +27°C° 0 mm 2 mps 762 mmHg 37%
    12:00 +28°C° 0 mm 3 mps 761 mmHg 35%
    13:00 +28°C° 0 mm 3 mps 761 mmHg 36%
    14:00 +28°C° 0 mm 4 mps 760 mmHg 37%
    15:00 +27°C° 0 mm 4 mps 759 mmHg 38%
    16:00 +26°C° 0 mm 5 mps 759 mmHg 41%
    17:00 +25°C° 0 mm 5 mps 759 mmHg 44%
    18:00 +23°C° 0 mm 5 mps 759 mmHg 47%
    19:00 +22°C° 0 mm 4 mps 759 mmHg 52%
    20:00 +20°C° 0 mm 4 mps 760 mmHg 56%
    21:00 +19°C° 0 mm 3 mps 760 mmHg 60%
    22:00 +18°C° 0 mm 3 mps 760 mmHg 62%
    23:00 +18°C° 0 mm 3 mps 760 mmHg 63%

    23 February, Sunday

    Time Temperature Precipitation Wind Pressure Humidity
    00:00 +18°C° 0 mm 3 mps 760 mmHg 65%
    01:00 +18°C° 0 mm 2 mps 760 mmHg 63%
    02:00 +18°C° 0 mm 2 mps 759 mmHg 61%
    03:00 +19°C° 0 mm 1 mps 759 mmHg 58%
    04:00 +19°C° 0 mm 1 mps 759 mmHg 56%
    05:00 +19°C° 0 mm 1 mps 759 mmHg 53%
    06:00 +20°C° 0 mm 1 mps 759 mmHg 51%
    07:00 +22°C° 0 mm 1 mps 759 mmHg 43%
    08:00 +25°C° 0 mm 1 mps 759 mmHg 36%
    09:00 +28°C° 0 mm 1 mps 759 mmHg 29%
    10:00 +29°C° 0 mm 2 mps 759 mmHg 28%
    11:00 +30°C° 0 mm 2 mps 759 mmHg 27%
    12:00 +31°C° 0 mm 3 mps 759 mmHg 27%
    13:00 +31°C° 0 mm 3 mps 758 mmHg 27%
    14:00 +31°C° 0 mm 3 mps 757 mmHg 28%
    15:00 +32°C° 0 mm 4 mps 757 mmHg 29%
    16:00 +29°C° 0 mm 4 mps 757 mmHg 33%
    17:00 +28°C° 0 mm 4 mps 757 mmHg 37%
    18:00 +27°C° 0 mm 4 mps 758 mmHg 41%
    19:00 +25°C° 0 mm 4 mps 758 mmHg 48%
    20:00 +23°C° 0 mm 4 mps 759 mmHg 54%
    21:00 +21°C° 0 mm 4 mps 759 mmHg 61%
    22:00 +20°C° 0 mm 4 mps 759 mmHg 62%
    23:00 +20°C° 0 mm 4 mps 759 mmHg 64%

    24 February, Monday

    Time Temperature Precipitation Wind Pressure Humidity
    00:00 +20°C° 0 mm 4 mps 758 mmHg 65%
    01:00 +20°C° 0 mm 3 mps 758 mmHg 63%
    02:00 +20°C° 0 mm 2 mps 758 mmHg 62%
    03:00 +20°C° 0 mm 2 mps 758 mmHg 60%
    04:00 +20°C° 0 mm 2 mps 758 mmHg 58%
    05:00 +20°C° 0 mm 2 mps 759 mmHg 56%
    06:00 +21°C° 0 mm 2 mps 759 mmHg 54%
    07:00 +23°C° 0 mm 2 mps 759 mmHg 53%
    08:00 +24°C° 0 mm 2 mps 759 mmHg 51%
    09:00 +25°C° 0 mm 2 mps 759 mmHg 49%
    10:00 +26°C° 0 mm 2 mps 759 mmHg 49%
    11:00 +26°C° 0 mm 2 mps 759 mmHg 49%
    12:00 +27°C° 0 mm 1 mps 758 mmHg 49%
    13:00 +27°C° 0 mm 2 mps 758 mmHg 50%
    14:00 +27°C° 0 mm 3 mps 757 mmHg 50%
    15:00 +27°C° 0 mm 3 mps 757 mmHg 50%
    16:00 +27°C° 0 mm 3 mps 757 mmHg 53%
    17:00 +26°C° 0 mm 4 mps 757 mmHg 55%
    18:00 +25°C° 0 mm 4 mps 757 mmHg 58%
    19:00 +23°C° 0 mm 4 mps 757 mmHg 61%
    20:00 +22°C° 0 mm 3 mps 758 mmHg 65%
    21:00 +20°C° 0 mm 3 mps 758 mmHg 68%
    22:00 +20°C° 0 mm 3 mps 758 mmHg 67%
    23:00 +20°C° 0 mm 3 mps 757 mmHg 66%

    25 February, Tuesday

    Time Temperature Precipitation Wind Pressure Humidity
    00:00 +19°C° 0 mm 3 mps 757 mmHg 65%
    01:00 +19°C° 0 mm 2 mps 757 mmHg 65%
    02:00 +19°C° 0 mm 2 mps 756 mmHg 64%
    03:00 +19°C° 0 mm 2 mps 756 mmHg 64%
    04:00 +19°C° 0 mm 2 mps 756 mmHg 64%
    05:00 +20°C° 0 mm 2 mps 756 mmHg 64%
    06:00 +20°C° 0 mm 2 mps 756 mmHg 64%
    07:00 +23°C° 0 mm 2 mps 756 mmHg 58%
    08:00 +25°C° 0 mm 2 mps 757 mmHg 52%
    09:00 +27°C° 0 mm 3 mps 757 mmHg 46%
    10:00 +27°C° 0 mm 3 mps 757 mmHg 44%
    11:00 +28°C° 0 mm 4 mps 756 mmHg 42%
    12:00 +28°C° 0 mm 5 mps 756 mmHg 40%
    13:00 +28°C° 0 mm 5 mps 756 mmHg 39%
    14:00 +28°C° 0 mm 6 mps 756 mmHg 38%
    15:00 +28°C° 0 mm 6 mps 755 mmHg 37%
    16:00 +27°C° 0 mm 6 mps 756 mmHg 41%
    17:00 +24°C° 0 mm 6 mps 756 mmHg 44%
    18:00 +23°C° 0 mm 6 mps 756 mmHg 47%
    19:00 +22°C° 0 mm 5 mps 757 mmHg 56%
    20:00 +20°C° 0 mm 4 mps 757 mmHg 65%
    21:00 +19°C° 0 mm 4 mps 758 mmHg 74%
    22:00 +18°C° 0 mm 4 mps 757 mmHg 78%
    23:00 +18°C° 0 mm 4 mps 757 mmHg 81%
    Show more